{"data":{"norad_id":63328,"intl_designator":"2025-057X","name":"STARLINK-33699","alt_names":[],"object_type":"PAYLOAD","status":"ACTIVE","operator":null,"country":"US","launch_date":"2025-03-18","launch_site_code":"AFETR","launch_vehicle":null,"mission":null,"orbit_class":"UNKNOWN","rcs_meters":null,"size_class":null,"mass_kg":null,"dimensions":null,"purposes":["comms"],"wikipedia_slug":null,"has_3d_model":false,"image_url":null,"decayed_at":null,"tle_current":{"epoch":"2026-09-20T07:44:06.565344Z","epoch_age_seconds":174211,"freshness":"STALE","line1":"1 63328U 25057X   26263.32229821  .00011662  00000+0  43251-3 0  9992","line2":"2 63328  43.0036   3.9066 0001056 280.3339  79.7393 15.27589246 85598","mean_motion":15.27589246,"eccentricity":0.0001056,"inclination_deg":43.0036,"raan_deg":3.9066,"arg_perigee_deg":280.3339,"mean_anomaly_deg":79.7393,"bstar":0.00043251,"rev_number":8559,"period_min":94.266178147735,"perigee_km":482.29687200094,"apogee_km":483.7459486572,"semimajor_km":6861.1584103291,"source":"CELESTRAK","updated_at":"2026-09-21T09:00:34.971360Z"}}}